This demonstration page uses our WeatherBlox Daily Observations layout. Learn more.

Left ArrowRight Arrow

34.74481, -87.66753

Hourly Observations for December 21, 2019

Temp ( °F °C ) Dew Point ( °F °C ) Humidity (%) Winds ( mph kmh ) Pressure ( in mb ) Visibility ( mi km ) Precip ( " mm )
12:53 am 00:53 Clear 45 7.2 33 0.6 63 63 Calm 30.42 1030 10 16 0.00 0.00
1:53 am 01:53 Clear 44 6.7 33 0.6 65 65 E 6 9 30.40 1030 10 16 0.00 0.00
2:53 am 02:53 Clear 45 7.2 31 -0.6 58 58 E 3 6 30.40 1029 10 16 0.00 0.00
3:53 am 03:53 Clear 45 7.2 31 -0.6 58 58 E 6 9 30.39 1029 10 16 0.00 0.00
4:53 am 04:53 Clear 45 7.2 31 -0.6 58 58 ENE 5 7 30.39 1029 10 16 0.00 0.00
5:53 am 05:53 Clear 43 6.1 32 0 65 65 ESE 6 9 30.39 1029 10 16 0.00 0.00
6:53 am 06:53 Clear 44 6.7 31 -0.6 60 60 E 3 6 30.40 1030 10 16 0.00 0.00
7:53 am 07:53 Mostly Cloudy 46 7.8 31 -0.6 56 56 E 5 7 30.41 1030 10 16 0.00 0.00
8:53 am 08:53 Cloudy 49 9.4 31 -0.6 50 50 E 6 9 30.42 1030 10 16 0.00 0.00
10:53 am 10:53 Cloudy 50 10 34 1.1 54 54 E 6 9 30.40 1030 10 16 0.00 0.00
11:53 am 11:53 Cloudy with Rain 49 9.4 37 2.8 64 64 ESE 7 11 30.37 1029 4 6 0.02 0.51
12:53 pm 12:53 Cloudy 50 10 37 2.8 61 61 ENE 3 6 30.37 1029 10 16 0.00 0.00
1:53 pm 13:53 Cloudy 50 10 38 3.3 63 63 ENE 8 13 30.35 1028 10 16 0.00 0.00
2:53 pm 14:53 Cloudy 50 10 39 3.9 66 66 ENE 7 11 30.36 1028 10 16 0.00 0.00
3:09 pm 15:09 Cloudy 50 10 39 3.9 66 66 NE 5 7 30.38 1029 10 16 0.00 0.00
3:53 pm 15:53 Cloudy with Light Rain 49 9.4 41 5 74 74 E 6 9 30.39 1029 8 13 0.02 0.51
4:11 pm 16:11 Cloudy with Heavy Rain 47 8.3 42 5.6 83 83 ENE 5 7 30.39 1029 2 3 0.11 2.79
4:19 pm 16:19 Cloudy with Rain 47 8.3 43 6.1 86 86 E 3 6 30.39 1029 3 5 0.14 3.56
4:53 pm 16:53 Cloudy with Light Rain 47 8.3 43 6.1 86 86 E 7 11 30.37 1029 10 16 0.15 3.81
5:32 pm 17:32 Cloudy with Light Rain 46 7.8 42 5.6 86 86 E 8 13 30.39 1029 10 16 0.02 0.51
5:53 pm 17:53 Cloudy with Light Rain 46 7.8 43 6.1 89 89 E 3 6 30.38 1029 10 16 0.02 0.51
6:53 pm 18:53 Cloudy with Light Rain 46 7.8 43 6.1 89 89 E 3 6 30.37 1029 9 14 0.03 0.76
7:53 pm 19:53 Cloudy 46 7.8 43 6.1 89 89 ENE 3 6 30.37 1028 10 16 0.00 0.00
8:53 pm 20:53 Cloudy with Light Rain 46 7.8 44 6.7 93 93 Calm 30.36 1028 9 14 0.01 0.25
9:53 pm 21:53 Cloudy with Light Rain 46 7.8 44 6.7 93 93 Calm 30.35 1028 10 16 0.01 0.25
10:53 pm 22:53 Cloudy with Light Rain 47 8.3 43 6.1 86 86 NE 3 6 30.33 1027 10 16 0.02 0.51
11:53 pm 23:53 Cloudy with Light Rain 47 8.3 44 6.7 90 90 NE 5 7 30.33 1027 10 16 0.02 0.51

Powered by AerisWeather